Weather History for Minot, ND

Change the Weather History Date:

Monday, October 8, 2012

  Actual Average Record
Temperature  
Mean Temperature 46 °F 48 °F  
Max Temperature 55 °F 59 °F 84 °F (1936)
Min Temperature 37 °F 37 °F 13 °F (1932)
Degree Days  
Heating Degree Days 19 17  
Month to date heating degree days 165 124  
Since 1 July heating degree days 375 444  
Cooling Degree Days 0 0  
Month to date cooling degree days 0 0  
Year to date cooling degree days 594 444  
Moisture  
Dew Point 34 °F    
Average Humidity 62    
Maximum Humidity 83    
Minimum Humidity 41    
Precipitation  
Precipitation 0.01 in 0.05 in 0.56 in (1985)
Month to date precipitation 1.25 0.36  
Year to date precipitation 12.18 15.26  
Sea Level Pressure  
Sea Level Pressure 29.66 in    
Wind  
Wind Speed 20 mph (West)    
Max Wind Speed 33 mph    
Max Gust Speed 41 mph    
Visibility 10 miles    
Events      
T = Trace of Precipitation, MM = Missing Value Source: NWS Daily Summary

Daily Weather History Graph

Daily Weather History Graph

Search for Another Location

Airport:

Trip Planner

Search our weather history database for the weather conditions in past years. The results will help you decide how hot, cold, wet, or windy it might be!

Date:

Astronomy

Oct. 08, 2012 Rise Set
Actual Time 7:55 AM CDT 7:08 PM CDT
Civil Twilight 7:24 AM CDT 7:40 PM CDT
Nautical Twilight 6:47 AM CDT 8:16 PM CDT
Astronomical Twilight 6:11 AM CDT 8:52 PM CDT
Moon 12:06 AM CDT (10/8) 3:27 PM CDT (10/8)
Length of Visible Light 12h 16m
Length of Day
11h 13m
Last Quarter, 46% of the Moon is Illuminated
Oct 8
Last Quarter
Oct 15
New
Oct 21
First Quarter
Oct 29
Full
Nov 6
Last Quarter

Hourly Weather History & Observations

Time (CDT) Temp. Windchill Dew Point Humidity Pressure Visibility Wind Dir Wind Speed Gust Speed Precip Events Conditions
12:54 AM 45.0 °F 41.8 °F 37.9 °F 76% 29.64 in 10.0 mi SSE 5.8 mph - N/A   Overcast
1:54 AM 46.0 °F 43.1 °F 37.9 °F 73% 29.60 in 10.0 mi South 5.8 mph - N/A   Overcast
2:54 AM 46.9 °F - 37.9 °F 71% 29.57 in 10.0 mi SSW 9.2 mph - N/A   Overcast
3:54 AM 48.0 °F - 39.0 °F 71% 29.54 in 10.0 mi SW 10.4 mph - N/A   Overcast
4:54 AM 48.9 °F - 39.0 °F 69% 29.54 in 10.0 mi West 17.3 mph - N/A   Overcast
5:54 AM 46.0 °F 38.8 °F 41.0 °F 83% 29.56 in 10.0 mi WNW 18.4 mph - 0.01 in   Partly Cloudy
6:54 AM 44.1 °F 36.5 °F 39.9 °F 85% 29.58 in 10.0 mi WNW 17.3 mph 24.2 mph N/A   Partly Cloudy
7:54 AM 45.0 °F 37.1 °F 39.9 °F 82% 29.61 in 10.0 mi WNW 19.6 mph 25.3 mph N/A   Overcast
8:54 AM 44.1 °F 35.9 °F 39.9 °F 85% 29.64 in 10.0 mi WNW 19.6 mph 25.3 mph N/A   Mostly Cloudy
9:54 AM 46.0 °F 39.3 °F 41.0 °F 83% 29.67 in 10.0 mi WNW 16.1 mph 25.3 mph N/A   Overcast
10:54 AM 46.9 °F - 39.0 °F 74% 29.68 in 10.0 mi WNW 21.9 mph 29.9 mph N/A   Overcast
11:27 AM 50.0 °F - 37.4 °F 62% 29.65 in 10.0 mi WNW 25.3 mph 32.2 mph N/A   Mostly Cloudy
11:54 AM 50.0 °F - 35.1 °F 57% 29.67 in 10.0 mi WNW 24.2 mph 35.7 mph N/A   Partly Cloudy
12:54 PM 51.1 °F - 30.9 °F 46% 29.68 in 10.0 mi WNW 27.6 mph 38.0 mph N/A   Overcast
1:54 PM 50.0 °F - 33.1 °F 52% 29.67 in 10.0 mi WNW 27.6 mph 33.4 mph N/A   Mostly Cloudy
2:54 PM 52.0 °F - 28.9 °F 41% 29.67 in 10.0 mi West 23.0 mph 39.1 mph N/A   Mostly Cloudy
3:54 PM 50.0 °F - 30.9 °F 48% 29.68 in 10.0 mi WNW 27.6 mph 34.5 mph N/A   Mostly Cloudy
4:54 PM 48.9 °F - 28.0 °F 44% 29.70 in 10.0 mi WNW 25.3 mph 32.2 mph N/A   Mostly Cloudy
5:54 PM 48.0 °F - 27.0 °F 44% 29.71 in 10.0 mi WNW 25.3 mph 33.4 mph N/A   Overcast
6:54 PM 46.0 °F 38.8 °F 28.0 °F 50% 29.73 in 10.0 mi West 18.4 mph 28.8 mph N/A   Overcast
7:54 PM 43.0 °F 34.5 °F 25.0 °F 49% 29.74 in 10.0 mi West 19.6 mph 31.1 mph N/A   Partly Cloudy
8:54 PM 41.0 °F 31.9 °F 26.6 °F 57% 29.72 in 10.0 mi West 19.6 mph 31.1 mph N/A   Clear
9:54 PM 39.9 °F 30.2 °F 26.1 °F 58% 29.76 in 10.0 mi West 20.7 mph 27.6 mph N/A   Partly Cloudy
10:54 PM 37.9 °F 28.2 °F 25.0 °F 60% 29.76 in 10.0 mi West 18.4 mph - N/A   Scattered Clouds
11:54 PM 37.0 °F 28.1 °F 26.1 °F 65% 29.76 in 10.0 mi WSW 15.0 mph 24.2 mph N/A   Clear